• In Moldova, Republic
  • List of Countries
  • For 7 days
  • Water Temperature
  • Satellite Maps
  • Weather Map
  • Weather Widgets
  • user-avatar
    Login

    Hourly Weather Konstantyna

    Today, 25 June, Sunday

    Time Temperature Precipitation Wind Pressure Humidity
    00:00 +20°C° 0 mm 0 mps 711 mmHg 68%
    01:00 +20°C° 0 mm 0 mps 711 mmHg 69%
    02:00 +19°C° 0 mm 0 mps 711 mmHg 70%
    03:00 +19°C° 0 mm 0 mps 711 mmHg 71%
    04:00 +21°C° 0 mm 0 mps 711 mmHg 64%
    05:00 +25°C° 0 mm 1 mps 711 mmHg 58%
    06:00 +25°C° 0 mm 0 mps 712 mmHg 50%
    07:00 +30°C° 0 mm 1 mps 712 mmHg 43%
    08:00 +32°C° 0 mm 1 mps 712 mmHg 35%
    09:00 +35°C° 0 mm 1 mps 712 mmHg 27%
    10:00 +37°C° 0 mm 2 mps 712 mmHg 24%
    11:00 +38°C° 0 mm 2 mps 712 mmHg 21%
    12:00 +39°C° 0 mm 2 mps 712 mmHg 18%
    13:00 +39°C° 0 mm 3 mps 712 mmHg 18%
    14:00 +39°C° 0 mm 3 mps 711 mmHg 19%
    15:00 +40°C° 0 mm 4 mps 711 mmHg 19%
    16:00 +37°C° 0 mm 3 mps 711 mmHg 23%
    17:00 +35°C° 0 mm 3 mps 710 mmHg 27%
    18:00 +32°C° 0 mm 2 mps 710 mmHg 31%
    19:00 +30°C° 0 mm 2 mps 710 mmHg 38%
    20:00 +28°C° 0 mm 1 mps 710 mmHg 45%
    21:00 +25°C° 0 mm 1 mps 710 mmHg 52%
    22:00 +25°C° 0 mm 1 mps 710 mmHg 51%
    23:00 +25°C° 0 mm 1 mps 710 mmHg 50%

    Tomorrow, 26 June, Monday

    Time Temperature Precipitation Wind Pressure Humidity
    00:00 +25°C° 0 mm 1 mps 709 mmHg 48%
    01:00 +25°C° 0 mm 1 mps 709 mmHg 47%
    02:00 +25°C° 0 mm 1 mps 709 mmHg 46%
    03:00 +25°C° 0 mm 2 mps 708 mmHg 45%
    04:00 +26°C° 0 mm 2 mps 708 mmHg 41%
    05:00 +28°C° 0 mm 2 mps 709 mmHg 38%
    06:00 +29°C° 0 mm 2 mps 709 mmHg 35%
    07:00 +32°C° 0 mm 2 mps 709 mmHg 28%
    08:00 +36°C° 0 mm 3 mps 709 mmHg 21%
    09:00 +39°C° 0 mm 3 mps 710 mmHg 15%
    10:00 +42°C° 0 mm 3 mps 710 mmHg 13%
    11:00 +43°C° 0 mm 3 mps 710 mmHg 12%
    12:00 +45°C° 0 mm 3 mps 710 mmHg 10%
    13:00 +44°C° 0 mm 3 mps 709 mmHg 11%
    14:00 +43°C° 0 mm 3 mps 709 mmHg 11%
    15:00 +43°C° 0 mm 4 mps 708 mmHg 12%
    16:00 +40°C° 0 mm 3 mps 708 mmHg 16%
    17:00 +38°C° 0 mm 3 mps 708 mmHg 20%
    18:00 +36°C° 0 mm 2 mps 708 mmHg 23%
    19:00 +32°C° 0 mm 2 mps 708 mmHg 30%
    20:00 +29°C° 0 mm 1 mps 709 mmHg 37%
    21:00 +27°C° 0 mm 1 mps 709 mmHg 43%
    22:00 +27°C° 0 mm 1 mps 709 mmHg 41%
    23:00 +27°C° 0 mm 1 mps 709 mmHg 40%

    Day after tomorrow, 27 June, Tuesday

    Time Temperature Precipitation Wind Pressure Humidity
    00:00 +27°C° 0 mm 1 mps 709 mmHg 38%
    01:00 +27°C° 0 mm 1 mps 708 mmHg 37%
    02:00 +27°C° 0 mm 1 mps 708 mmHg 36%
    03:00 +27°C° 0 mm 1 mps 708 mmHg 35%
    04:00 +28°C° 0 mm 1 mps 708 mmHg 33%
    05:00 +29°C° 0 mm 1 mps 708 mmHg 32%
    06:00 +30°C° 0 mm 1 mps 709 mmHg 30%
    07:00 +33°C° 0 mm 1 mps 709 mmHg 25%
    08:00 +36°C° 0 mm 1 mps 709 mmHg 20%
    09:00 +40°C° 0 mm 1 mps 710 mmHg 16%
    10:00 +41°C° 0 mm 2 mps 710 mmHg 15%
    11:00 +42°C° 0 mm 2 mps 710 mmHg 13%
    12:00 +44°C° 0 mm 3 mps 710 mmHg 12%
    13:00 +42°C° 0 mm 2 mps 709 mmHg 14%
    14:00 +41°C° 0 mm 2 mps 709 mmHg 15%
    15:00 +40°C° 0 mm 2 mps 708 mmHg 16%
    16:00 +38°C° 0.2 mm 2 mps 708 mmHg 20%
    17:00 +37°C° 0.2 mm 2 mps 708 mmHg 24%
    18:00 +34°C° 0.2 mm 1 mps 708 mmHg 28%
    19:00 +34°C° 0.1 mm 2 mps 708 mmHg 31%
    20:00 +31°C° 0.1 mm 2 mps 709 mmHg 34%
    21:00 +30°C° 0.1 mm 2 mps 709 mmHg 37%
    22:00 +29°C° 0 mm 2 mps 708 mmHg 38%
    23:00 +29°C° 0 mm 2 mps 708 mmHg 39%

    28 June, Wednesday

    Time Temperature Precipitation Wind Pressure Humidity
    00:00 +28°C° 0 mm 3 mps 708 mmHg 40%
    01:00 +28°C° 0 mm 3 mps 707 mmHg 42%
    02:00 +27°C° 0 mm 2 mps 707 mmHg 43%
    03:00 +26°C° 0 mm 2 mps 707 mmHg 45%
    04:00 +27°C° 0 mm 2 mps 707 mmHg 42%
    05:00 +28°C° 0 mm 2 mps 707 mmHg 38%
    06:00 +29°C° 0 mm 2 mps 707 mmHg 35%
    07:00 +32°C° 0 mm 2 mps 708 mmHg 29%
    08:00 +36°C° 0 mm 3 mps 708 mmHg 22%
    09:00 +39°C° 0 mm 3 mps 709 mmHg 16%
    10:00 +41°C° 0 mm 4 mps 708 mmHg 16%
    11:00 +41°C° 0 mm 5 mps 708 mmHg 15%
    12:00 +42°C° 0 mm 5 mps 708 mmHg 14%
    13:00 +41°C° 0 mm 6 mps 708 mmHg 17%
    14:00 +40°C° 0 mm 6 mps 708 mmHg 19%
    15:00 +39°C° 0 mm 6 mps 707 mmHg 21%
    16:00 +36°C° 0 mm 5 mps 707 mmHg 28%
    17:00 +34°C° 0 mm 4 mps 707 mmHg 35%
    18:00 +30°C° 0 mm 2 mps 707 mmHg 42%
    19:00 +28°C° 0 mm 2 mps 707 mmHg 52%
    20:00 +26°C° 0 mm 2 mps 708 mmHg 61%
    21:00 +24°C° 0 mm 2 mps 708 mmHg 71%
    22:00 +23°C° 0 mm 2 mps 708 mmHg 69%
    23:00 +23°C° 0 mm 1 mps 708 mmHg 67%

    29 June, Thursday

    Time Temperature Precipitation Wind Pressure Humidity
    00:00 +23°C° 0 mm 1 mps 707 mmHg 65%
    01:00 +23°C° 0 mm 1 mps 707 mmHg 66%
    02:00 +22°C° 0 mm 1 mps 707 mmHg 66%
    03:00 +22°C° 0 mm 1 mps 706 mmHg 67%
    04:00 +23°C° 0 mm 1 mps 707 mmHg 62%
    05:00 +24°C° 0 mm 1 mps 707 mmHg 58%
    06:00 +25°C° 0 mm 1 mps 707 mmHg 54%
    07:00 +28°C° 0 mm 1 mps 708 mmHg 45%
    08:00 +31°C° 0 mm 1 mps 708 mmHg 36%
    09:00 +33°C° 0 mm 1 mps 709 mmHg 27%
    10:00 +36°C° 0 mm 2 mps 709 mmHg 24%
    11:00 +38°C° 0 mm 2 mps 709 mmHg 20%
    12:00 +40°C° 0 mm 3 mps 709 mmHg 17%
    13:00 +40°C° 0 mm 4 mps 708 mmHg 20%
    14:00 +39°C° 0 mm 5 mps 708 mmHg 22%
    15:00 +38°C° 0 mm 6 mps 707 mmHg 25%
    16:00 +35°C° 0 mm 5 mps 707 mmHg 32%
    17:00 +32°C° 0 mm 4 mps 707 mmHg 39%
    18:00 +29°C° 0 mm 3 mps 707 mmHg 47%
    19:00 +27°C° 0 mm 2 mps 708 mmHg 56%
    20:00 +25°C° 0 mm 2 mps 708 mmHg 66%
    21:00 +23°C° 0 mm 2 mps 708 mmHg 76%
    22:00 +22°C° 0 mm 1 mps 707 mmHg 77%
    23:00 +22°C° 0 mm 1 mps 707 mmHg 79%

    30 June, Friday

    Time Temperature Precipitation Wind Pressure Humidity
    00:00 +21°C° 0 mm 1 mps 707 mmHg 81%
    01:00 +21°C° 0 mm 1 mps 707 mmHg 81%
    02:00 +20°C° 0 mm 1 mps 707 mmHg 81%
    03:00 +20°C° 0 mm 1 mps 706 mmHg 81%
    04:00 +21°C° 0 mm 1 mps 707 mmHg 74%
    05:00 +22°C° 0 mm 1 mps 707 mmHg 68%
    06:00 +21°C° 0 mm 0 mps 707 mmHg 61%
    07:00 +26°C° 0 mm 1 mps 708 mmHg 52%
    08:00 +29°C° 0 mm 1 mps 708 mmHg 44%
    09:00 +31°C° 0 mm 1 mps 708 mmHg 35%
    10:00 +34°C° 0 mm 3 mps 708 mmHg 31%
    11:00 +36°C° 0 mm 4 mps 708 mmHg 28%
    12:00 +39°C° 0 mm 5 mps 708 mmHg 24%
    13:00 +37°C° 0 mm 5 mps 707 mmHg 28%
    14:00 +36°C° 0 mm 5 mps 707 mmHg 32%
    15:00 +35°C° 0 mm 5 mps 707 mmHg 36%
    16:00 +32°C° 0 mm 5 mps 707 mmHg 45%
    17:00 +28°C° 0 mm 5 mps 707 mmHg 55%
    18:00 +25°C° 0 mm 5 mps 707 mmHg 64%
    19:00 +23°C° 0 mm 4 mps 708 mmHg 68%
    20:00 +22°C° 0 mm 3 mps 709 mmHg 72%
    21:00 +21°C° 0 mm 2 mps 710 mmHg 76%
    22:00 +20°C° 0.1 mm 2 mps 710 mmHg 79%
    23:00 +20°C° 0.1 mm 2 mps 710 mmHg 82%
    Show more